Fort Collins, CO

9:53 PM MST on February 08, 2016 (GMT -0700)
Fort Collins-Loveland Municipal

Weather History for KFNL - October, 2012

Change the Weather History Date:

Wednesday, October 17, 2012

  Actual Average Record
Temperature  
Mean Temperature 52 °F -  
Max Temperature 57 °F - 84 °F (2003)
Min Temperature 46 °F - 28 °F (1996)
Degree Days  
Heating Degree Days 14    
Month to date heating degree days  
Cooling Degree Days 0    
Month to date cooling degree days  
Growing Degree Days 2 (Base 50)    
Moisture  
Dew Point 14 °F    
Average Humidity 23    
Maximum Humidity 35    
Minimum Humidity 16    
Precipitation  
Precipitation 0.00 in - 0.10 in (2006)
Sea Level Pressure  
Sea Level Pressure 29.87 in    
Wind  
Wind Speed 19 mph (NW)    
Max Wind Speed 31 mph    
Max Gust Speed 40 mph    
Visibility 10 miles    
Events      
T = Trace of Precipitation, MM = Missing Value Source: NWS Daily Summary

Daily Weather History Graph

Daily Weather History Graph

Search for Another Location

Airport or City:

Trip Planner

Search our weather history database for the weather conditions in past years. The results will help you decide how hot, cold, wet, or windy it might be!

Date:

Astronomy

Oct. 17, 2012 Rise Set
Actual Time 7:13 AM MDT 6:16 PM MDT
Civil Twilight 6:46 AM MDT 6:43 PM MDT
Nautical Twilight 6:14 AM MDT 7:15 PM MDT
Astronomical Twilight 5:42 AM MDT 7:46 PM MDT
Moon 9:51 AM MDT (10/17) 7:53 PM MDT (10/17)
Length of Visible Light 11h 57m
Length of Day
11h 02m
Waxing Crescent, 7% of the Moon is Illuminated
Oct 17
Waxing Crescent
Oct 21
First Quarter
Oct 29
Full
Nov 6
Last Quarter
Nov 13
New

Hourly Weather History & Observations

Time (MDT) Temp. Windchill Dew Point Humidity Pressure Visibility Wind Dir Wind Speed Gust Speed Precip Events Conditions
12:15 AM 55.4 °F - 23.0 °F 29% 29.72 in 10.0 mi WNW 19.6 mph 34.5 mph N/A   Clear
12:35 AM 55.4 °F - 24.8 °F 31% 29.74 in 10.0 mi WNW 16.1 mph 20.7 mph N/A   Clear
12:55 AM 53.6 °F - 26.6 °F 35% 29.73 in 10.0 mi West 17.3 mph - N/A   Clear
1:15 AM 53.6 °F - 24.8 °F 33% 29.74 in 10.0 mi West 23.0 mph 32.2 mph N/A   Clear
1:35 AM 53.6 °F - 24.8 °F 33% 29.74 in 10.0 mi West 19.6 mph 27.6 mph N/A   Clear
1:55 AM 53.6 °F - 21.2 °F 28% 29.75 in 10.0 mi WNW 19.6 mph 26.5 mph N/A   Clear
2:15 AM 53.6 °F - 19.4 °F 26% 29.75 in 10.0 mi West 15.0 mph 24.2 mph N/A   Clear
2:35 AM 51.8 °F - 17.6 °F 26% 29.76 in 10.0 mi West 18.4 mph 29.9 mph N/A   Clear
2:55 AM 51.8 °F - 15.8 °F 24% 29.76 in 10.0 mi West 19.6 mph 25.3 mph N/A   Clear
3:15 AM 50.0 °F - 15.8 °F 26% 29.76 in 10.0 mi WNW 13.8 mph 17.3 mph N/A   Clear
3:35 AM 51.8 °F - 15.8 °F 24% 29.76 in 10.0 mi WNW 18.4 mph 27.6 mph N/A   Clear
3:55 AM 51.8 °F - 15.8 °F 24% 29.76 in 10.0 mi West 13.8 mph 20.7 mph N/A   Clear
4:15 AM 51.8 °F - 15.8 °F 24% 29.76 in 10.0 mi West 19.6 mph 31.1 mph N/A   Clear
4:35 AM 50.0 °F - 17.6 °F 28% 29.76 in 10.0 mi WNW 26.5 mph 36.8 mph N/A   Clear
4:55 AM 50.0 °F - 17.6 °F 28% 29.78 in 10.0 mi West 18.4 mph 28.8 mph N/A   Clear
5:15 AM 48.2 °F - 17.6 °F 30% 29.78 in 10.0 mi WNW 15.0 mph 24.2 mph N/A   Clear
5:35 AM 48.2 °F - 15.8 °F 27% 29.80 in 10.0 mi NNW 11.5 mph 25.3 mph N/A   Clear
5:55 AM 48.2 °F - 15.8 °F 27% 29.83 in 10.0 mi NW 18.4 mph - N/A   Clear
6:15 AM 46.4 °F 41.1 °F 15.8 °F 29% 29.84 in 10.0 mi NW 11.5 mph 26.5 mph N/A   Clear
6:35 AM 46.4 °F 41.9 °F 15.8 °F 29% 29.85 in 10.0 mi NNW 9.2 mph 17.3 mph N/A   Clear
6:55 AM 46.4 °F 40.1 °F 14.0 °F 27% 29.87 in 10.0 mi NW 15.0 mph 28.8 mph N/A   Clear
7:15 AM 46.4 °F 38.3 °F 14.0 °F 27% 29.89 in 10.0 mi NW 23.0 mph 31.1 mph N/A   Clear
7:35 AM 46.4 °F 38.3 °F 12.2 °F 25% 29.89 in 10.0 mi WNW 23.0 mph 36.8 mph N/A   Clear
7:55 AM 46.4 °F 37.2 °F 12.2 °F 25% 29.90 in 10.0 mi NW 29.9 mph 40.3 mph N/A   Clear
8:15 AM 46.4 °F 37.5 °F 12.2 °F 25% 29.91 in 10.0 mi WNW 27.6 mph 38.0 mph N/A   Clear
8:35 AM 46.4 °F 38.5 °F 14.0 °F 27% 29.93 in 10.0 mi WNW 21.9 mph 33.4 mph N/A   Clear
8:55 AM 46.4 °F 39.2 °F 14.0 °F 27% 29.93 in 10.0 mi WNW 18.4 mph 27.6 mph N/A   Clear
9:35 AM 48.2 °F - 14.0 °F 25% 29.94 in 10.0 mi WNW 25.3 mph 29.9 mph N/A   Clear
9:55 AM 48.2 °F - 10.4 °F 22% 29.94 in 10.0 mi NW 31.1 mph 40.3 mph N/A   Clear
10:15 AM 50.0 °F - 10.4 °F 20% 29.94 in 10.0 mi NW 19.6 mph 32.2 mph N/A   Clear
10:55 AM 51.8 °F - 12.2 °F 21% 29.92 in 10.0 mi West 20.7 mph 27.6 mph N/A   Clear
11:15 AM 51.8 °F - 12.2 °F 21% 29.92 in 10.0 mi WNW 17.3 mph 32.2 mph N/A   Clear
11:35 AM 51.8 °F - 12.2 °F 21% 29.91 in 10.0 mi WNW 23.0 mph 32.2 mph N/A   Clear
11:55 AM 53.6 °F - 12.2 °F 19% 29.92 in 10.0 mi WNW 26.5 mph 34.5 mph N/A   Clear
12:15 PM 53.6 °F - 12.2 °F 19% 29.92 in 10.0 mi WNW 26.5 mph 35.7 mph N/A   Clear
12:35 PM 53.6 °F - 12.2 °F 19% 29.91 in 10.0 mi WNW 24.2 mph 36.8 mph N/A   Clear
12:55 PM 55.4 °F - 12.2 °F 18% 29.91 in 10.0 mi WNW 24.2 mph 35.7 mph N/A   Clear
1:15 PM 55.4 °F - 12.2 °F 18% 29.90 in 10.0 mi NW 27.6 mph 33.4 mph N/A   Clear
1:35 PM 55.4 °F - 12.2 °F 18% 29.90 in 10.0 mi NW 28.8 mph 38.0 mph N/A   Clear
1:55 PM 55.4 °F - 12.2 °F 18% 29.89 in 10.0 mi NW 29.9 mph 38.0 mph N/A   Clear
2:15 PM 55.4 °F - 12.2 °F 18% 29.89 in 10.0 mi WNW 26.5 mph 35.7 mph N/A   Clear
2:35 PM 55.4 °F - 12.2 °F 18% 29.88 in 10.0 mi WNW 24.2 mph 34.5 mph N/A   Clear
2:55 PM 55.4 °F - 12.2 °F 18% 29.88 in 10.0 mi WNW 26.5 mph 34.5 mph N/A   Clear
3:15 PM 55.4 °F - 12.2 °F 18% 29.88 in 10.0 mi West 24.2 mph 40.3 mph N/A   Clear
3:35 PM 57.2 °F - 12.2 °F 17% 29.87 in 10.0 mi WNW 20.7 mph 28.8 mph N/A   Clear
3:55 PM 55.4 °F - 12.2 °F 18% 29.87 in 10.0 mi WNW 25.3 mph 33.4 mph N/A   Clear
4:15 PM 57.2 °F - 12.2 °F 17% 29.87 in 10.0 mi WNW 16.1 mph 25.3 mph N/A   Clear
4:35 PM 57.2 °F - 12.2 °F 17% 29.86 in 10.0 mi NW 16.1 mph 24.2 mph N/A   Clear
4:55 PM 57.2 °F - 12.2 °F 17% 29.86 in 10.0 mi West 11.5 mph - N/A   Clear
5:15 PM 55.4 °F - 10.4 °F 17% 29.87 in 10.0 mi West 11.5 mph - N/A   Clear
5:35 PM 55.4 °F - 10.4 °F 17% 29.87 in 10.0 mi West 9.2 mph - N/A   Clear
5:55 PM 55.4 °F - 10.4 °F 17% 29.88 in 10.0 mi WNW 12.7 mph 24.2 mph N/A   Clear
6:15 PM 53.6 °F - 8.6 °F 16% 29.88 in 10.0 mi NW 16.1 mph - N/A   Clear
6:35 PM 51.8 °F - 6.8 °F 16% 29.88 in 10.0 mi NNW 15.0 mph - N/A   Clear
6:55 PM 51.8 °F - 6.8 °F 16% 29.89 in 10.0 mi NNW 12.7 mph - N/A   Clear
7:15 PM 48.2 °F - 8.6 °F 20% 29.89 in 10.0 mi NNW 10.4 mph - N/A   Clear
7:35 PM 48.2 °F - 8.6 °F 20% 29.90 in 10.0 mi NNW 10.4 mph - N/A   Clear
7:55 PM 46.4 °F 43.5 °F 8.6 °F 22% 29.91 in 10.0 mi NNW 5.8 mph - N/A   Clear
8:15 PM 46.4 °F 41.9 °F 10.4 °F 23% 29.92 in 10.0 mi North 9.2 mph - N/A   Clear
8:35 PM 48.2 °F - 10.4 °F 22% 29.92 in 10.0 mi North 3.5 mph - N/A   Clear
8:55 PM 46.4 °F 41.9 °F 10.4 °F 23% 29.93 in 10.0 mi NNE 9.2 mph - N/A   Clear
9:15 PM 46.4 °F 41.5 °F 12.2 °F 25% 29.95 in 10.0 mi North 10.4 mph - N/A   Clear
9:35 PM 46.4 °F 41.1 °F 12.2 °F 25% 29.95 in 10.0 mi North 11.5 mph 19.6 mph N/A   Clear
9:55 PM 46.4 °F 39.8 °F 12.2 °F 25% 29.96 in 10.0 mi North 16.1 mph - N/A   Clear
10:15 PM 46.4 °F 40.1 °F 12.2 °F 25% 29.97 in 10.0 mi North 15.0 mph - N/A   Clear
10:35 PM 48.2 °F - 12.2 °F 24% 29.98 in 10.0 mi North 16.1 mph - N/A   Clear
10:55 PM 48.2 °F - 10.4 °F 22% 29.99 in 10.0 mi North 18.4 mph - N/A   Clear
11:15 PM 48.2 °F - 12.2 °F 24% 29.99 in 10.0 mi North 20.7 mph - N/A   Clear
11:35 PM 48.2 °F - 12.2 °F 24% 30.00 in 10.0 mi North 20.7 mph - N/A   Clear
11:55 PM 46.4 °F 39.5 °F 12.2 °F 25% 30.01 in 10.0 mi North 17.3 mph - N/A   Clear